Location: Malvern Link
(52.1333°N, 2.3000°W)
Time: 06:49:24
(UTC+00:00)

Cosmos 1048 Rocket - Pass Details

Date: 18 September 2020
Orbit: 743 x 792 km, 74.0° (Epoch: 18 October)

Event Time Altitude Azimuth Distance (km) Brightness Sun altitude
Rises 19:22:01 0° 336° (NNW) 3,253 7.9 -10.8°
Reaches altitude 10° 19:24:26 10° 341° (NNW) 2,330 7.0 -11.1°
Maximum altitude 19:29:39 56° 59° (ENE) 924 4.2 -11.9°
Enters shadow 19:34:11 14° 136° (SE) 2,078 5.7 -12.6°
